| time (UTC) | temp F | wind direction | speed MPH | gust MPH | rain 1hr in | rain 24hr in | rain mn in | humidity % | barometer mb |
| 20260904064542 | 81 | 209 | 0.0 | 3.0 | 0.00 | 0.00 | 0.00 | 70 | 1010.8 |
| 20260904063040 | 82 | 11 | 0.0 | 4.0 | 0.00 | 0.00 | 0.00 | 68 | 1010.7 |
| 20260904061536 | 83 | 11 | 1.0 | 7.0 | 0.00 | 0.00 | 0.00 | 67 | 1010.6 |
| 20260904060034 | 83 | 11 | 3.0 | 9.0 | 0.00 | 0.00 | 0.00 | 66 | 1010.7 |
| 20260904054530 | 84 | 222 | 4.0 | 11.0 | 0.00 | 0.00 | 0.00 | 64 | 1010.5 |
| 20260904053036 | 84 | 11 | 3.0 | 10.0 | 0.00 | 0.00 | 0.00 | 64 | 1010.5 |
| 20260904051535 | 84 | 11 | 2.0 | 11.0 | 0.00 | 0.00 | 0.00 | 63 | 1010.3 |
| 20260904050033 | 84 | 199 | 3.0 | 11.0 | 0.00 | 0.00 | 0.00 | 63 | 1010.3 |
| 20260904044525 | 84 | 11 | 1.0 | 6.0 | 0.00 | 0.00 | 0.00 | 63 | 1010.4 |
| 20260904043024 | 84 | 11 | 1.0 | 5.0 | 0.00 | 0.00 | 0.00 | 63 | 1010.2 |
| 20260904041525 | 84 | 11 | 1.0 | 5.0 | 0.00 | 0.00 | 0.00 | 63 | 1010.2 |
| 20260904040022 | 85 | 11 | 0.0 | 4.0 | 0.00 | 0.00 | 0.00 | 62 | 1009.9 |
| 20260904034523 | 85 | 11 | 0.0 | 4.0 | 0.00 | 0.00 | 0.00 | 62 | 1010.0 |
| 20260904033021 | 85 | 11 | 1.0 | 5.0 | 0.00 | 0.00 | 0.00 | 62 | 1009.9 |
| 20260904031522 | 85 | 11 | 2.0 | 8.0 | 0.00 | 0.00 | 0.00 | 62 | 1009.9 |
| 20260904030020 | 85 | 182 | 1.0 | 5.0 | 0.00 | 0.00 | 0.00 | 62 | 1010.0 |
| 20260904024521 | 85 | 11 | 0.0 | 4.0 | 0.00 | 0.00 | 0.00 | 62 | 1010.0 |
| 20260904023026 | 85 | 11 | 0.0 | 4.0 | 0.00 | 0.00 | 0.00 | 61 | 1009.8 |
| 20260904021533 | 86 | 170 | 0.0 | 4.0 | 0.00 | 0.00 | 0.00 | 60 | 1009.8 |
| 20260904020019 | 86 | 11 | 0.0 | 3.0 | 0.00 | 0.00 | 0.00 | 60 | 1009.5 |
| 20260904014518 | 87 | 149 | 0.0 | 5.0 | 0.00 | 0.00 | 0.00 | 59 | 1009.1 |
| 20260904013017 | 88 | 11 | 0.0 | 4.0 | 0.00 | 0.00 | 0.00 | 58 | 1008.9 |
| 20260904011524 | 89 | 11 | 0.0 | 3.0 | 0.00 | 0.00 | 0.00 | 57 | 1008.7 |
| 20260904010017 | 90 | 11 | 0.0 | 2.0 | 0.00 | 0.00 | 0.00 | 55 | 1008.7 |
| 20260904004516 | 91 | 11 | 1.0 | 4.0 | 0.00 | 0.00 | 0.00 | 53 | 1008.7 |
| 20260904003015 | 92 | 183 | 1.0 | 4.0 | 0.00 | 0.00 | 0.00 | 51 | 1008.7 |
| 20260904001515 | 93 | 11 | 1.0 | 5.0 | 0.00 | 0.00 | 0.00 | 50 | 1008.6 |
| 20260904000039 | 94 | 205 | 2.0 | 11.0 | 0.00 | 0.00 | 0.00 | 49 | 1008.6 |
| 20260903234514 | 94 | 11 | 2.0 | 9.0 | 0.00 | 0.00 | 0.00 | 47 | 1008.4 |
| 20260903233013 | 95 | 11 | 2.0 | 13.0 | 0.00 | 0.00 | 0.00 | 46 | 1008.4 |
| 20260903231512 | 95 | 11 | 4.0 | 11.0 | 0.00 | 0.00 | 0.00 | 46 | 1008.5 |
| 20260903230020 | 96 | 11 | 3.0 | 11.0 | 0.00 | 0.00 | 0.00 | 46 | 1008.5 |
| 20260903224609 | 96 | 182 | 2.0 | 11.0 | 0.00 | 0.00 | 0.00 | 45 | 1008.5 |
| 20260903223009 | 96 | 195 | 4.0 | 14.0 | 0.00 | 0.00 | 0.00 | 45 | 1008.5 |
| 20260903221509 | 96 | 11 | 6.0 | 21.0 | 0.00 | 0.00 | 0.00 | 45 | 1008.5 |
| 20260903220011 | 97 | 110 | 4.0 | 13.0 | 0.00 | 0.00 | 0.00 | 45 | 1008.4 |
| 20260903214507 | 97 | 197 | 4.0 | 14.0 | 0.00 | 0.00 | 0.00 | 45 | 1008.6 |
| 20260903213105 | 98 | 11 | 6.0 | 13.0 | 0.00 | 0.00 | 0.00 | 44 | 1008.9 |
| 20260903211503 | 99 | 11 | 7.0 | 14.0 | 0.00 | 0.00 | 0.00 | 43 | 1009.1 |
| 20260903210002 | 99 | 11 | 7.0 | 13.0 | 0.00 | 0.00 | 0.00 | 44 | 1009.3 |
| 20260903204603 | 99 | 11 | 3.0 | 23.0 | 0.00 | 0.00 | 0.00 | 44 | 1009.4 |
| 20260903203102 | 99 | 258 | 6.0 | 17.0 | 0.00 | 0.00 | 0.00 | 45 | 1009.5 |
| 20260903201558 | 99 | 190 | 3.0 | 13.0 | 0.00 | 0.00 | 0.00 | 46 | 1009.6 |
| 20260903200054 | 98 | 11 | 6.0 | 14.0 | 0.00 | 0.00 | 0.00 | 46 | 1009.8 |
| 20260903194556 | 99 | 11 | 4.0 | 17.0 | 0.00 | 0.00 | 0.00 | 45 | 1009.8 |
| 20260903193054 | 98 | 11 | 7.0 | 21.0 | 0.00 | 0.00 | 0.00 | 46 | 1010.0 |
| 20260903191549 | 98 | 11 | 4.0 | 16.0 | 0.00 | 0.00 | 0.00 | 48 | 1010.1 |
| 20260903190056 | 97 | 11 | 6.0 | 18.0 | 0.00 | 0.00 | 0.00 | 47 | 1010.1 |
| 20260903184538 | 97 | 197 | 6.0 | 15.0 | 0.00 | 0.00 | 0.00 | 48 | 1010.4 |
| 20260903183034 | 97 | 11 | 5.0 | 13.0 | 0.00 | 0.00 | 0.00 | 50 | 1010.5 |
| 20260903181541 | 96 | 11 | 3.0 | 15.0 | 0.00 | 0.00 | 0.00 | 49 | 1010.7 |
| 20260903180027 | 96 | 11 | 5.0 | 18.0 | 0.00 | 0.00 | 0.00 | 49 | 1010.9 |
| 20260903174525 | 95 | 211 | 7.0 | 17.0 | 0.00 | 0.00 | 0.00 | 51 | 1011.0 |
| 20260903173021 | 95 | 11 | 4.0 | 21.0 | 0.00 | 0.00 | 0.00 | 53 | 1011.3 |
| 20260903171531 | 94 | 11 | 5.0 | 16.0 | 0.00 | 0.00 | 0.00 | 53 | 1011.5 |
| 20260903170015 | 93 | 11 | 5.0 | 23.0 | 0.00 | 0.00 | 0.00 | 54 | 1011.7 |
| 20260903164511 | 93 | 11 | 7.0 | 20.0 | 0.00 | 0.00 | 0.00 | 54 | 1011.8 |
| 20260903163011 | 92 | 234 | 7.0 | 20.0 | 0.00 | 0.00 | 0.00 | 57 | 1011.9 |
| 20260903161503 | 91 | 224 | 5.0 | 18.0 | 0.00 | 0.00 | 0.00 | 58 | 1011.9 |
| 20260903160105 | 90 | 203 | 5.0 | 22.0 | 0.00 | 0.00 | 0.00 | 59 | 1012.0 |
| 20260903154554 | 89 | 11 | 9.0 | 21.0 | 0.00 | 0.00 | 0.00 | 59 | 1011.9 |
| 20260903153049 | 88 | 220 | 5.0 | 21.0 | 0.00 | 0.00 | 0.00 | 61 | 1011.8 |
| 20260903151549 | 87 | 11 | 5.0 | 21.0 | 0.00 | 0.00 | 0.00 | 63 | 1012.0 |
| 20260903150100 | 87 | 11 | 8.0 | 19.0 | 0.00 | 0.00 | 0.00 | 63 | 1012.0 |
| 20260903144537 | 86 | 209 | 8.0 | 20.0 | 0.00 | 0.00 | 0.00 | 65 | 1012.0 |
| 20260903143037 | 84 | 11 | 4.0 | 12.0 | 0.00 | 0.00 | 0.00 | 68 | 1012.1 |
| 20260903141529 | 83 | 192 | 5.0 | 18.0 | 0.00 | 0.00 | 0.00 | 69 | 1012.1 |
| 20260903140025 | 82 | 11 | 5.0 | 18.0 | 0.00 | 0.00 | 0.00 | 71 | 1012.2 |
| 20260903134523 | 81 | 11 | 4.0 | 17.0 | 0.00 | 0.00 | 0.00 | 71 | 1012.3 |
| 20260903133025 | 81 | 11 | 4.0 | 13.0 | 0.00 | 0.00 | 0.00 | 72 | 1012.3 |
| 20260903131518 | 80 | 11 | 5.0 | 13.0 | 0.00 | 0.00 | 0.00 | 72 | 1012.2 |
| 20260903130016 | 80 | 11 | 4.0 | 14.0 | 0.00 | 0.00 | 0.00 | 73 | 1012.1 |
| 20260903124516 | 79 | 11 | 5.0 | 13.0 | 0.00 | 0.00 | 0.00 | 73 | 1011.9 |
| 20260903123113 | 79 | 11 | 4.0 | 15.0 | 0.00 | 0.00 | 0.00 | 73 | 1011.9 |
| 20260903121509 | 79 | 200 | 4.0 | 13.0 | 0.00 | 0.00 | 0.00 | 73 | 1011.8 |
| 20260903120007 | 79 | 11 | 5.0 | 12.0 | 0.00 | 0.00 | 0.00 | 73 | 1011.5 |
| 20260903114504 | 79 | 11 | 5.0 | 14.0 | 0.00 | 0.00 | 0.00 | 72 | 1011.5 |
| 20260903113002 | 79 | 191 | 3.0 | 12.0 | 0.00 | 0.00 | 0.00 | 72 | 1011.4 |
| 20260903111617 | 79 | 197 | 4.0 | 14.0 | 0.00 | 0.00 | 0.00 | 71 | 1011.4 |
| 20260903110100 | 80 | 11 | 5.0 | 14.0 | 0.00 | 0.00 | 0.00 | 70 | 1011.3 |
| 20260903104610 | 80 | 11 | 4.0 | 14.0 | 0.00 | 0.00 | 0.00 | 70 | 1011.3 |
| 20260903103105 | 80 | 11 | 5.0 | 13.0 | 0.00 | 0.00 | 0.00 | 69 | 1011.0 |
| 20260903101559 | 81 | 11 | 6.0 | 19.0 | 0.00 | 0.00 | 0.00 | 68 | 1011.1 |
| 20260903100059 | 81 | 200 | 7.0 | 18.0 | 0.00 | 0.00 | 0.00 | 68 | 1011.0 |
| 20260903094559 | 81 | 11 | 6.0 | 18.0 | 0.00 | 0.00 | 0.00 | 67 | 1011.0 |
| 20260903093122 | 81 | 199 | 5.0 | 19.0 | 0.00 | 0.00 | 0.00 | 67 | 1010.9 |
| 20260903091554 | 81 | 191 | 3.0 | 11.0 | 0.00 | 0.00 | 0.00 | 66 | 1010.9 |
| 20260903090049 | 81 | 190 | 2.0 | 18.0 | 0.00 | 0.00 | 0.00 | 66 | 1011.0 |
| 20260903084548 | 80 | 11 | 3.0 | 12.0 | 0.00 | 0.00 | 0.00 | 67 | 1010.9 |
| 20260903083051 | 80 | 186 | 2.0 | 10.0 | 0.00 | 0.00 | 0.00 | 67 | 1010.9 |
| 20260903081545 | 80 | 11 | 1.0 | 11.0 | 0.00 | 0.00 | 0.00 | 67 | 1010.8 |
| 20260903080044 | 79 | 11 | 3.0 | 12.0 | 0.00 | 0.00 | 0.00 | 67 | 1011.0 |
| 20260903074545 | 79 | 161 | 1.0 | 6.0 | 0.00 | 0.00 | 0.00 | 68 | 1010.7 |
| 20260903073042 | 79 | 158 | 1.0 | 6.0 | 0.00 | 0.00 | 0.00 | 68 | 1010.9 |
| 20260903071546 | 80 | 11 | 1.0 | 5.0 | 0.00 | 0.00 | 0.00 | 67 | 1011.0 |
| 20260903070055 | 80 | 11 | 0.0 | 5.0 | 0.00 | 0.00 | 0.00 | 67 | 1011.0 |